Погода в Павловке

Россия / Амурская область     50°52′18″N   128°43′27″E
В апреле 2022 года жителям России запретили посещать сайт meteo.paraplan.net по решению Генеральной прокуратуры. Аудитория сайта уменьшилась в 10 раз. Владельцы сайта не видят смысла в поддержке погодного сервера в таких условиях. Сайт будет закрыт в октябре.
темп.,
°C
ветер,
м/с
пор.,
м/с
влажн.,
%
обл.,
%
осадки,
мм/ч
давл.,
гПа
погр.,
м
30 сентября, пт
пт3000:00+4ссз33895 0.0 100851
03:00+2ссз379417 0.0 1009136
06:00+1ссз3696100 0.0 1012127
09:00+4ссз3581100 0.0 1013426
12:00+5ссв5577100 0.0 1013607
15:00+6с1268100 0.1 1013931
18:00+5с5779100 0.4 1013538
21:00+3с487897 0.4 1014321
1 октября, сб
сб100:00+2ссз378246 0.0 1016177
03:000ссз36856 0.0 1018107
06:00−1ссз348657 0.0 102154
09:00+4ссз23645 0.0 1021292
12:00+9с22462 0.0 1021830
15:00+11сз00415 0.0 1020991
18:00+7юв225589 0.0 102016
21:00+5ююв356197 0.0 102088
2 октября, вс
вс200:00+5ююв4863100 0.0 1019173
03:00+6ююв51161100 0.0 1018257
06:00+5ю5882100 0.4 1018259
09:00+6ююв51078100 0.4 1016302
12:00+8ююз51184100 0.1 1014574
15:00+8ююз4996100 1.4 1013492
18:00+8зюз4897100 1.4 1014389
21:00+7зюз2597100 1.8 1015144
3 октября, пн
пн300:00+7сз2695100 0.1 1015198
03:00+5сз3775100 0.1 1016217
06:00+3сз4979100 0.0 1018407
09:00+2сз5772100 0.0 1018588
12:00+3сз5661100 0.0 1018808
15:00+5сз474796 0.0 10161507
18:00+3сз5105599 0.0 1016425
21:000сз4107170 0.0 1017343
4 октября, вт
вт400:00−1сз5117990 0.0 1015606
03:00−1сз6117586 0.0 1015853
06:00−1сз7126988 0.0 1014794
09:000сз9125692 0.0 1014938
12:00+2ссз81071100 0.1 10131125
15:00+4ссз81049100 0.1 10131736
18:00+2ссз6114841 0.0 1014513
21:00−1сз512555 0.0 1015337